[[{"header":{"parameterUnit":"m.s-1","parameterCategory":1,"la1":30.2991,"la2":30.254,"lo1":-89.0895,"lo2":-89.0444,"dy":0.0017,"dx":0.0017,"nx":28,"ny":28,"refTime":"2025-03-30T03:00:00:Z","depth":0,"parameterNumber":2,"parameterNumberName":"U-component_of_WINDS"},"data":[0,0,0,0,0,0,0,0,0,0,0,0,0,0,0,0,0,0,0,0,0,0,0,0,0,0,0,0,0,0,0,0,0,0,0,0,0,0,0,0,0,0,0,0,0,0,0,0,0,0,0,0,0,0,0,0,0,0,1.0653,1.0652,0,1.0598,1.0597,1.0597,1.0571,1.0571,1.0572,1.0572,1.0517,1.0516,1.0514,0,0,0,0,0,0,0,0,0,0,0,0,0,1.074,1.0739,1.0653,1.0652,1.0651,1.0598,1.0597,1.0596,1.0571,1.0571,1.0572,1.0572,1.0518,1.0516,1.0514,0,0,0,0,0,0,0,0,0,0,0,0,0,1.0695,1.0738,1.0653,1.0632,1.063,1.0598,1.0597,1.0596,1.0571,1.0571,1.0572,1.0572,1.0518,1.0516,1.0514,1.0499,0,0,1.0507,1.0506,0,0,0,0,0,0,0,0,1.0698,1.0692,1.0636,1.0634,1.0631,1.0591,1.0608,1.0564,1.0571,1.0594,1.0572,1.0572,1.0542,1.0538,1.0528,1.0496,1.0494,1.0507,1.0506,1.0505,1.0504,0,0,0,0,0,0,0,1.0701,1.0694,1.0631,1.0635,1.0632,1.0627,1.0621,1.06,1.0568,1.0592,1.059,1.0584,1.0541,1.053,1.0526,1.0493,1.0507,1.0505,1.0504,1.0503,1.0452,1.0451,0,0,0,0,0,0,1.0707,1.0697,1.0633,1.0629,1.0665,1.0626,1.0619,1.0604,1.0568,1.0563,1.0584,1.0583,1.0534,1.0529,1.0524,1.0506,1.0505,1.0503,1.0501,1.0452,1.0452,1.0451,0,0,0,0,0,0,1.0709,1.0702,1.0635,1.0663,1.0654,1.0624,1.0608,1.0603,1.0592,1.0562,1.0557,1.0578,1.0533,1.0527,1.0506,1.0504,1.0502,1.05,1.0452,1.0452,1.0451,1.0469,0,0,0,0,0,0,1.0712,1.0702,1.0695,1.0663,1.0652,1.0616,1.0608,1.0602,1.0588,1.0586,1.0555,1.055,1.0533,1.051,1.0504,1.0501,1.0498,1.0452,1.0452,1.0452,1.0469,1.047,1.0471,0,0,0,0,0,1.0715,1.0702,1.0695,1.0687,1.0642,1.0616,1.0611,1.059,1.0588,1.0581,1.0563,1.0551,1.0505,1.0508,1.0501,1.0497,1.0452,1.0452,1.0452,1.0468,1.047,1.0471,0,0,0,0,0,0,1.0733,1.0697,1.0689,1.0664,1.0644,1.0612,1.0602,1.0592,1.0572,1.0571,1.0548,1.0541,1.0523,1.0508,1.0511,1.0483,1.0478,1.0476,1.0493,1.0494,1.0495,1.0499,1.0496,0,0,0,0,0,1.0735,1.0716,1.0685,1.0667,1.0657,1.0632,1.062,1.0606,1.0584,1.0575,1.0555,1.0535,1.0517,1.0504,1.0485,1.0467,1.0462,1.0462,1.0463,1.0464,1.0463,1.0456,1.0456,1.0451,1.0451,1.0451,0,0,1.0737,1.0715,1.0704,1.067,1.0652,1.0635,1.0624,1.0605,1.0593,1.0573,1.0552,1.0537,1.0513,1.0494,1.0485,1.0482,1.0464,1.0464,1.0465,1.0463,1.0456,1.0456,1.0457,1.0451,1.0451,1.0451,0,0,1.0733,1.0713,1.0697,1.0681,1.0655,1.0639,1.0635,1.0606,1.0595,1.0574,1.056,1.0546,1.0513,1.0498,1.0486,1.0481,1.0471,1.0475,1.0481,1.0474,1.0474,1.0474,1.0475,1.0475,1.0475,1.0475,1.0475,0,1.0739,1.071,1.069,1.0673,1.066,1.0642,1.0627,1.0612,1.0582,1.0574,1.0571,1.0532,1.0515,1.0494,1.0493,1.0483,1.048,1.0478,1.0476,1.0476,1.0476,1.0476,1.0476,1.0476,1.0475,1.0475,1.0475,0,1.0721,1.0702,1.0693,1.0664,1.065,1.0634,1.0614,1.0602,1.0592,1.0577,1.0558,1.0537,1.0515,1.0509,1.0497,1.0488,1.0487,1.048,1.0474,1.0477,1.0477,1.0477,1.0477,1.0476,1.0476,1.0476,0,0,1.0723,1.0687,1.0684,1.0673,1.0645,1.0631,1.0616,1.0595,1.0587,1.0567,1.0556,1.0531,1.0526,1.0512,1.0499,1.0493,1.0494,1.0488,1.0487,1.0491,1.0485,1.049,1.0491,1.0488,1.0487,1.0487,1.0487,0,1.0715,1.0686,1.067,1.0649,1.0633,1.0619,1.0606,1.0589,1.0576,1.0562,1.0548,1.0532,1.0525,1.0517,1.051,1.0495,1.0493,1.0495,1.0478,1.0478,1.0485,1.049,1.0495,1.0496,1.0487,1.0487,1.0487,0,1.0701,1.0684,1.0661,1.064,1.0632,1.0621,1.0603,1.0589,1.0571,1.0562,1.0549,1.0537,1.0524,1.052,1.0502,1.0504,1.0497,1.0489,1.0489,1.0486,1.0482,1.0489,1.0495,1.0496,1.0486,1.0486,1.0486,0,1.0707,1.0678,1.0662,1.0653,1.0626,1.0619,1.0608,1.059,1.058,1.0564,1.0558,1.0541,1.0532,1.052,1.0505,1.0503,1.049,1.0484,1.0483,1.0484,1.0481,1.0481,1.0487,1.0475,1.0475,1.0475,1.0475,0,1.07,1.0688,1.0665,1.0655,1.0642,1.0624,1.0612,1.06,1.0585,1.0574,1.056,1.0551,1.0531,1.052,1.0508,1.0497,1.0492,1.0486,1.0483,1.0488,1.0489,1.0482,1.0482,1.0475,1.0475,1.0475,1.0475,0,1.0704,1.0688,1.0669,1.0647,1.0642,1.0633,1.0615,1.0606,1.0594,1.058,1.0576,1.0557,1.0544,1.0528,1.0509,1.0501,1.0491,1.0487,1.0497,1.0496,1.0497,1.0498,1.0499,1.05,1.0487,1.0487,1.0487,0,1.07,1.069,1.0668,1.066,1.065,1.0637,1.0627,1.0611,1.0602,1.0583,1.0577,1.0563,1.055,1.053,1.0515,1.0502,1.0497,1.0499,1.0495,1.0501,1.0499,1.05,1.05,1.05,1.05,1.05,1.05,0,1.0696,1.069,1.0676,1.0662,1.0651,1.0638,1.0625,1.0619,1.0601,1.0592,1.0578,1.0569,1.0551,1.0538,1.0523,1.0513,1.0505,1.0502,1.0501,1.0506,1.0513,1.0511,1.0501,1.0502,1.0501,1.0501,1.0501,1.0501,1.0697,1.0689,1.0674,1.066,1.0649,1.0638,1.063,1.0618,1.0606,1.0591,1.0583,1.057,1.0556,1.0536,1.0527,1.0518,1.0515,1.0513,1.0513,1.0513,1.0516,1.0515,1.0515,1.0515,1.0515,1.0515,1.0515,0,1.0694,1.0684,1.0672,1.0655,1.0646,1.064,1.0626,1.0619,1.0608,1.0595,1.0585,1.0571,1.0559,1.0545,1.0533,1.0529,1.0525,1.0527,1.0527,1.0525,1.0518,1.0521,1.053,1.053,1.053,1.053,1.053,1.053,1.0691,1.0679,1.0672,1.0655,1.0646,1.0633,1.0627,1.0618,1.0608,1.0594,1.0584,1.0576,1.0564,1.0552,1.0542,1.0538,1.0535,1.0538,1.0533,1.0527,1.0525,1.0524,1.0526,1.0537,1.0537,1.0541,1.0541,1.0541]},{"header":{"parameterUnit":"m.s-1","parameterCategory":1,"la1":30.2991,"la2":30.254,"lo1":-89.0895,"lo2":-89.0444,"dy":0.0017,"dx":0.0017,"nx":28,"ny":28,"refTime":"2025-03-30T03:00:00:Z","depth":0,"parameterNumber":3,"parameterNumberName":"V-component_of_WINDS"},"data":[0,0,0,0,0,0,0,0,0,0,0,0,0,0,0,0,0,0,0,0,0,0,0,0,0,0,0,0,0,0,0,0,0,0,0,0,0,0,0,0,0,0,0,0,0,0,0,0,0,0,0,0,0,0,0,0,0,0,3.3985,3.3986,0,3.4127,3.4128,3.413,3.4154,3.4153,3.4152,3.4151,3.4295,3.43,3.4305,0,0,0,0,0,0,0,0,0,0,0,0,0,3.3735,3.374,3.3985,3.3986,3.3988,3.4126,3.4128,3.413,3.4154,3.4153,3.4151,3.415,3.4293,3.4299,3.4305,0,0,0,0,0,0,0,0,0,0,0,0,0,3.3857,3.3741,3.3984,3.4017,3.4021,3.4126,3.4128,3.4131,3.4155,3.4153,3.4151,3.4149,3.4291,3.4298,3.4306,3.4388,0,0,3.4328,3.4332,0,0,0,0,0,0,0,0,3.385,3.3866,3.401,3.4015,3.402,3.4121,3.4093,3.4217,3.4155,3.4104,3.4151,3.4149,3.4238,3.425,3.428,3.4394,3.44,3.4329,3.4334,3.4337,3.4339,0,0,0,0,0,0,0,3.3842,3.386,3.4041,3.4012,3.4018,3.4025,3.404,3.4117,3.4179,3.4108,3.411,3.4127,3.4241,3.4273,3.4284,3.4403,3.4329,3.4336,3.434,3.4343,3.4594,3.4597,0,0,0,0,0,0,3.3827,3.3853,3.4036,3.4045,3.3929,3.4031,3.4048,3.409,3.4179,3.419,3.4128,3.4128,3.4261,3.4275,3.4289,3.4394,3.4337,3.4344,3.4348,3.4592,3.4595,3.4597,0,0,0,0,0,0,3.3822,3.3843,3.403,3.395,3.3974,3.4037,3.4084,3.4094,3.4127,3.4194,3.4205,3.415,3.4261,3.4279,3.4364,3.4399,3.4347,3.4354,3.459,3.4593,3.4596,3.4601,0,0,0,0,0,0,3.3815,3.3841,3.3873,3.395,3.3978,3.4103,3.4086,3.4098,3.414,3.414,3.4217,3.4228,3.4261,3.4353,3.4371,3.4408,3.436,3.4587,3.4591,3.4595,3.4598,3.4605,3.461,0,0,0,0,0,3.3806,3.3867,3.3874,3.3896,3.4019,3.4104,3.4121,3.4157,3.4142,3.4175,3.4219,3.4226,3.4392,3.4361,3.4382,3.4422,3.4585,3.459,3.4595,3.4596,3.4603,3.461,0,0,0,0,0,0,3.3791,3.3878,3.3887,3.3975,3.4033,3.4108,3.415,3.4163,3.4225,3.4222,3.4264,3.4281,3.4365,3.4402,3.4366,3.4508,3.4487,3.4497,3.4481,3.4489,3.4494,3.4484,3.4366,0,0,0,0,0,3.3799,3.3861,3.3933,3.4005,3.4033,3.4087,3.4125,3.4149,3.4209,3.4233,3.4283,3.4342,3.4407,3.445,3.4513,3.4603,3.4622,3.4641,3.4647,3.4651,3.466,3.4713,3.4724,3.4614,3.4614,3.4614,0,0,3.3814,3.3869,3.3906,3.4003,3.405,3.4115,3.4107,3.4175,3.4223,3.4243,3.4328,3.4366,3.4435,3.4524,3.4565,3.4557,3.4694,3.4658,3.4661,3.4667,3.472,3.473,3.4739,3.4617,3.4617,3.4616,0,0,3.3876,3.3923,3.3989,3.4037,3.4109,3.4145,3.4161,3.4236,3.4263,3.4348,3.4365,3.4424,3.4535,3.4584,3.4624,3.4707,3.4717,3.4726,3.4756,3.4808,3.4817,3.4825,3.4858,3.4869,3.4734,3.4734,3.4734,0,3.3886,3.3984,3.4021,3.409,3.4133,3.4156,3.4224,3.4268,3.4357,3.4387,3.4376,3.4519,3.4566,3.4668,3.4689,3.4719,3.474,3.4718,3.4813,3.4821,3.4829,3.4861,3.4873,3.4735,3.4735,3.4734,3.4734,0,3.3995,3.4063,3.4107,3.4195,3.4243,3.431,3.4359,3.4403,3.4423,3.446,3.4548,3.4606,3.4683,3.4709,3.4727,3.4815,3.4808,3.4804,3.4785,3.484,3.4871,3.4883,3.4736,3.4736,3.4735,3.4735,0,0,3.4051,3.416,3.4176,3.4217,3.4299,3.4353,3.4422,3.4499,3.4538,3.4598,3.4659,3.4754,3.4753,3.4797,3.4822,3.4867,3.4933,3.4859,3.4861,3.4873,3.5037,3.5041,3.5055,3.494,3.4942,3.4944,3.5033,0,3.4125,3.4251,3.4288,3.4394,3.4459,3.4482,3.4543,3.46,3.4637,3.4698,3.4738,3.4806,3.4797,3.4825,3.487,3.4915,3.4967,3.4909,3.4999,3.5002,3.4984,3.507,3.5074,3.5155,3.5044,3.5046,3.5048,0,3.4228,3.4293,3.4406,3.4483,3.4511,3.4565,3.4641,3.4698,3.4764,3.4788,3.4839,3.486,3.4935,3.4911,3.5016,3.4976,3.5014,3.5042,3.5046,3.5058,3.503,3.5087,3.5181,3.5194,3.5067,3.5065,3.5064,0,3.4262,3.4377,3.4461,3.4495,3.4585,3.4624,3.4663,3.4728,3.4773,3.4838,3.4868,3.494,3.4981,3.5037,3.5078,3.5056,3.5181,3.5159,3.5205,3.5204,3.5232,3.523,3.5336,3.5252,3.5251,3.5251,3.5251,0,3.4342,3.4411,3.4478,3.4529,3.4608,3.465,3.4727,3.4767,3.4825,3.4886,3.4909,3.4965,3.5014,3.5078,3.511,3.5194,3.5211,3.5234,3.5243,3.5234,3.5232,3.5262,3.5258,3.5255,3.5254,3.5253,3.5253,0,3.4394,3.4441,3.4534,3.4613,3.4635,3.469,3.4758,3.481,3.4848,3.4925,3.4945,3.5005,3.5081,3.5127,3.5223,3.5245,3.5339,3.5343,3.5317,3.5322,3.5366,3.5363,3.5498,3.5519,3.5417,3.5418,3.5419,0,3.4443,3.4498,3.4583,3.4626,3.4667,3.4735,3.4782,3.4825,3.4873,3.4954,3.4996,3.5074,3.5139,3.526,3.5313,3.5387,3.5395,3.5438,3.5407,3.5398,3.54,3.5398,3.5405,3.5444,3.5444,3.5445,3.5446,0,3.4527,3.4549,3.4615,3.4691,3.4747,3.4808,3.4869,3.4903,3.4957,3.5009,3.5088,3.5139,3.5238,3.5316,3.5396,3.5437,3.5452,3.5455,3.547,3.5464,3.5448,3.5461,3.5335,3.5452,3.5451,3.5451,3.5451,3.545,3.4582,3.4633,3.4702,3.4776,3.4827,3.4884,3.4938,3.4984,3.5051,3.5136,3.5157,3.5241,3.5308,3.5416,3.546,3.5527,3.552,3.5541,3.5547,3.5552,3.5556,3.5435,3.5541,3.554,3.554,3.554,3.554,0,3.467,3.4716,3.4784,3.487,3.4929,3.4938,3.5006,3.5056,3.5129,3.5191,3.5255,3.5348,3.5424,3.5483,3.5562,3.5605,3.5614,3.5624,3.5623,3.5633,3.5555,3.5536,3.5616,3.5616,3.5616,3.5616,3.5616,3.5616,3.4723,3.481,3.484,3.4954,3.4999,3.5083,3.5122,3.5175,3.5226,3.5328,3.5392,3.543,3.5492,3.5576,3.5647,3.5663,3.5692,3.5703,3.572,3.5646,3.5638,3.563,3.5613,3.5708,3.5708,3.5793,3.5794,3.5794]}]]